Temp
15 14 13 13 13 13 14 13 13 13 13 12 12 11 10 10 9 9 9 9 7 7 7 7 7 7 7 7 7 7 7 7 7 7 7 7 7 7 7 7 7 7 7 6 6 6 6 6 6
14 13 13 13 13 13 13 13 13 14 13 12 11 11 11 10 10 10 10 8 7 7 7 7 7 7 7 7 7 7 7 7 7 7 7 7 7 7 7 7 7 7 6 6 6 6 6 6 6
14 13 13 13 13 13 13 13 13 14 13 12 12 12 11 10 10 10 10 8 7 7 7 6 6 7 7 7 7 7 7 7 7 7 7 6 6 6 6 6 6 6 6 6 6 5 6 6 6
14 13 13 13 14 14 13 13 12 14 13 13 12 12 11 10 11 10 9 7 7 7 7 6 6 7 7 7 7 7 7 7 7 6 6 6 6 6 6 6 6 5 5 5 5 5 5 5 5
13 13 12 13 14 13 14 13 13 14 13 12 12 12 11 10 11 9 8 7 7 6 6 6 6 7 7 7 7 7 6 6 6 6 6 6 6 6 6 5 5 5 5 5 5 5 5 5 5
13 13 13 13 13 12 13 12 12 14 12 11 12 12 11 10 10 9 8 7 6 6 6 6 6 6 6 6 6 6 6 5 5 5 5 5 5 5 5 5 5 5 5 5 4 4 4 4 4
13 13 14 13 12 12 12 11 11 12 11 11 11 11 11 10 10 8 8 7 7 6 6 6 6 6 6 6 6 6 6 6 5 5 5 4 4 4 4 4 4 4 4 4 4 4 4 3 3
14 13 14 13 12 13 13 11 11 11 11 11 11 11 11 11 10 9 8 7 7 7 6 6 6 6 6 6 6 6 5 5 5 4 4 4 4 4 4 4 3 4 3 3 3 3 2 2 2
14 13 14 14 13 15 13 12 11 12 12 12 12 11 11 11 10 9 8 8 7 7 6 6 6 6 6 7 6 5 4 4 4 3 3 3 3 3 3 3 3 3 3 2 2 2 1 1 0
14 14 14 14 14 15 14 13 12 12 12 12 11 11 11 11 10 10 9 8 7 6 6 6 6 6 6 6 5 4 3 3 3 3 2 3 3 3 3 2 2 2 2 2 1 1 0 -0 -1
15 14 14 14 14 14 13 13 12 13 12 12 11 11 10 10 10 10 9 8 7 6 6 6 6 6 5 5 4 3 3 3 2 2 2 2 2 2 2 2 1 1 1 0 -0 -1 -1 -2 -2
14 14 14 14 15 15 14 13 13 13 12 12 11 11 10 10 10 10 9 9 7 7 6 6 5 5 4 4 3 3 3 2 2 2 2 2 2 1 1 1 1 0 -0 -1 -1 -2 -2 -3 -3
14 14 14 14 14 14 14 13 12 13 12 12 11 10 10 10 10 10 9 9 8 7 6 5 5 4 4 3 3 2 2 2 2 1 1 1 1 1 1 0 -0 -0 -1 -2 -2 -3 -3 -4 -4
14 14 14 14 14 14 13 12 12 13 12 12 11 10 10 10 10 10 9 9 8 7 6 5 4 4 3 3 2 2 2 1 1 1 1 1 0 0 0 -0 -1 -2 -2 -3 -4 -4 -4 -5 -5
14 14 14 14 13 14 12 12 13 13 12 12 11 10 10 10 10 10 9 8 7 6 5 5 4 4 3 2 2 2 1 1 1 0 0 -0 -0 -0 -0 -1 -2 -3 -3 -4 -4 -5 -6 -6 -7
13 14 14 14 14 13 12 13 12 12 12 12 11 11 10 10 10 10 9 7 6 6 5 4 4 3 3 2 2 1 1 1 0 -0 -0 -1 -1 -1 -2 -3 -3 -4 -4 -5 -5 -6 -6 -7 -7
13 13 14 14 13 13 12 13 12 12 12 12 12 11 11 11 10 10 8 7 6 5 4 4 3 2 2 1 1 1 0 -0 -1 -0 -1 -1 -2 -2 -3 -4 -4 -5 -5 -6 -6 -7 -7 -7 -8
13 13 14 13 13 13 12 13 12 12 12 11 11 10 11 11 10 9 9 7 6 5 4 3 3 2 1 0 0 -0 -1 -1 -1 -1 -1 -1 -2 -3 -4 -5 -5 -6 -6 -6 -7 -7 -8 -8 -9
13 13 13 13 14 13 13 13 12 12 12 12 11 11 11 11 9 9 9 8 6 5 4 3 2 2 0 -0 -1 -1 -2 -2 -1 -2 -2 -2 -3 -4 -5 -6 -6 -7 -7 -7 -8 -8 -8 -8 -9
12 12 13 13 14 13 13 13 12 12 12 12 12 11 11 11 10 9 8 7 6 5 4 2 2 2 0 -1 -1 -2 -2 -2 -2 -2 -3 -3 -4 -4 -5 -6 -7 -7 -7 -8 -9 -9 -9 -10 -10
12 13 13 13 13 12 12 11 12 12 12 11 12 10 11 10 9 8 7 6 6 5 4 2 2 1 -0 -1 -2 -2 -2 -2 -3 -3 -4 -4 -5 -6 -6 -7 -7 -8 -8 -9 -9 -10 -10 -11 -12
13 13 13 13 12 12 12 11 12 13 12 12 12 11 11 9 8 7 7 6 5 4 4 2 2 1 -1 -2 -2 -3 -3 -3 -3 -4 -4 -6 -7 -7 -7 -8 -8 -8 -9 -10 -10 -11 -12 -12 -12
13 13 13 13 12 12 12 11 13 13 13 13 13 12 12 8 7 7 6 5 5 4 4 2 1 -0 -1 -2 -3 -3 -3 -3 -3 -4 -5 -6 -7 -7 -8 -8 -9 -9 -10 -10 -11 -12 -12 -12 -12
12 12 12 12 12 10 12 11 12 12 13 13 13 12 11 8 7 7 6 5 5 4 3 2 1 -0 -2 -3 -3 -3 -3 -3 -4 -5 -6 -7 -8 -8 -8 -9 -9 -10 -10 -11 -12 -12 -12 -12 -12
12 12 11 9 9 7 12 11 12 12 12 11 11 11 10 8 7 6 6 5 4 4 3 1 -0 -1 -2 -3 -3 -3 -3 -4 -5 -6 -7 -7 -8 -8 -8 -9 -10 -10 -11 -12 -12 -12 -12 -13 -13
12 11 11 8 7 9 11 11 12 11 10 10 10 9 8 7 7 6 5 5 4 3 2 0 -1 -2 -3 -3 -3 -3 -4 -5 -6 -7 -7 -8 -8 -8 -9 -10 -10 -11 -12 -12 -12 -13 -13 -14 -14
11 11 11 11 11 8 10 10 10 11 10 9 9 9 8 7 6 6 5 4 3 2 1 -0 -1 -2 -3 -3 -4 -4 -5 -6 -7 -7 -8 -8 -8 -9 -9 -10 -11 -12 -12 -12 -12 -13 -14 -14 -14
11 11 11 11 8 7 9 10 11 10 10 10 9 9 8 6 5 5 4 3 2 1 0 -1 -2 -3 -4 -5 -4 -5 -6 -7 -7 -8 -8 -8 -9 -9 -10 -11 -12 -12 -12 -12 -13 -14 -14 -14 -14
11 10 10 10 10 6 5 9 10 10 10 9 8 8 6 5 5 4 3 2 2 1 -0 -1 -3 -4 -4 -4 -5 -6 -7 -7 -8 -8 -8 -9 -9 -9 -10 -11 -12 -12 -12 -12 -13 -14 -14 -14 -14
9 9 9 8 8 9 7 8 8 9 9 8 8 7 6 5 4 3 2 2 1 0 -1 -3 -4 -4 -4 -5 -5 -6 -7 -8 -8 -8 -9 -9 -9 -10 -11 -12 -12 -12 -12 -13 -14 -14 -14 -14 -15
Height
3193 3193 3196 3197 3201 3197 3195 3195 3192 3191 3189 3188 3188 3188 3187 3183 3183 3186 3182 3183 3182 3183 3184 3184 3183 3182 3180 3178 3175 3173 3170 3167 3165 3161 3159 3156 3153 3149 3145 3142 3138 3135 3132 3128 3125 3123 3120 3118 3117
3192 3195 3197 3198 3200 3197 3195 3191 3190 3191 3190 3189 3188 3186 3185 3183 3182 3180 3181 3181 3180 3182 3182 3182 3181 3180 3178 3176 3174 3171 3169 3166 3164 3161 3158 3154 3150 3145 3141 3137 3133 3130 3127 3124 3121 3118 3116 3113 3111
3193 3195 3198 3197 3194 3194 3191 3190 3190 3191 3189 3188 3187 3184 3182 3181 3180 3180 3179 3179 3178 3180 3180 3180 3179 3178 3177 3175 3173 3170 3167 3165 3162 3159 3155 3151 3147 3143 3139 3134 3130 3126 3123 3119 3116 3113 3110 3107 3105
3193 3196 3196 3195 3193 3192 3189 3190 3190 3190 3188 3185 3184 3183 3182 3178 3177 3180 3179 3178 3178 3179 3179 3178 3177 3177 3175 3173 3170 3168 3165 3163 3159 3156 3153 3150 3145 3140 3137 3132 3127 3123 3119 3116 3112 3108 3104 3101 3098
3193 3195 3195 3193 3190 3189 3190 3191 3190 3187 3186 3185 3183 3182 3180 3177 3173 3177 3178 3177 3176 3176 3176 3176 3175 3174 3172 3171 3169 3166 3162 3160 3158 3154 3151 3146 3142 3137 3133 3128 3123 3119 3115 3111 3107 3102 3098 3095 3092
3193 3194 3194 3191 3189 3189 3189 3190 3188 3185 3184 3184 3183 3181 3179 3175 3173 3174 3174 3174 3173 3174 3175 3174 3173 3172 3171 3169 3166 3164 3161 3157 3155 3151 3146 3141 3138 3133 3129 3124 3119 3114 3109 3105 3100 3096 3092 3088 3084
3193 3193 3191 3191 3188 3189 3191 3189 3187 3185 3183 3183 3182 3180 3179 3175 3171 3173 3173 3174 3174 3173 3173 3172 3171 3170 3169 3167 3165 3162 3159 3155 3150 3146 3142 3138 3133 3129 3124 3119 3114 3108 3103 3098 3093 3089 3085 3080 3076
3192 3192 3189 3191 3189 3188 3185 3188 3186 3184 3183 3182 3181 3179 3177 3174 3172 3170 3171 3172 3173 3173 3172 3170 3169 3168 3166 3164 3162 3159 3156 3152 3147 3143 3139 3134 3130 3125 3120 3114 3108 3102 3097 3092 3087 3082 3077 3073 3069
3190 3188 3186 3187 3188 3185 3183 3183 3185 3184 3182 3182 3179 3178 3177 3174 3172 3170 3169 3169 3170 3171 3170 3168 3167 3166 3164 3162 3158 3155 3152 3149 3144 3138 3134 3129 3125 3120 3114 3108 3101 3096 3091 3086 3081 3075 3071 3067 3061
3187 3186 3186 3185 3185 3185 3183 3182 3184 3184 3181 3179 3178 3176 3174 3173 3171 3169 3168 3168 3168 3167 3166 3165 3164 3163 3161 3158 3154 3150 3149 3146 3140 3135 3130 3124 3120 3114 3109 3103 3096 3091 3085 3080 3075 3069 3065 3060 3056
3184 3182 3183 3182 3181 3181 3182 3182 3182 3181 3178 3177 3176 3174 3172 3171 3170 3169 3167 3167 3166 3164 3163 3161 3160 3159 3156 3153 3149 3146 3144 3141 3137 3131 3126 3120 3114 3108 3103 3097 3091 3086 3081 3075 3070 3065 3059 3054 3049
3182 3179 3180 3180 3178 3178 3178 3178 3178 3177 3177 3175 3173 3171 3170 3168 3167 3166 3167 3166 3164 3163 3161 3159 3157 3155 3153 3150 3145 3142 3139 3136 3132 3126 3122 3116 3109 3103 3098 3092 3086 3080 3076 3071 3065 3059 3055 3050 3043
3179 3179 3178 3177 3176 3175 3175 3175 3172 3173 3171 3171 3170 3168 3167 3166 3164 3163 3163 3163 3162 3161 3159 3156 3155 3152 3149 3146 3142 3139 3135 3132 3127 3122 3117 3111 3104 3099 3093 3086 3080 3074 3068 3063 3058 3054 3049 3044 3038
3178 3178 3177 3174 3173 3173 3172 3171 3169 3168 3167 3168 3166 3165 3164 3163 3161 3158 3157 3157 3157 3157 3155 3153 3151 3148 3145 3143 3140 3136 3131 3128 3124 3118 3112 3106 3099 3093 3086 3080 3074 3067 3062 3057 3051 3046 3042 3038 3032
3175 3176 3177 3174 3171 3171 3169 3169 3165 3167 3165 3164 3162 3161 3160 3159 3157 3155 3155 3153 3153 3153 3152 3150 3147 3144 3141 3140 3137 3132 3127 3124 3119 3115 3108 3100 3093 3087 3080 3073 3068 3061 3056 3052 3045 3040 3036 3032 3025
3173 3174 3172 3171 3170 3169 3168 3163 3163 3164 3163 3162 3160 3158 3157 3156 3154 3152 3151 3151 3150 3151 3150 3148 3145 3141 3139 3136 3132 3127 3123 3119 3114 3109 3102 3094 3088 3081 3073 3067 3062 3055 3050 3046 3039 3035 3031 3026 3022
3170 3168 3167 3168 3167 3166 3164 3159 3160 3159 3158 3158 3157 3155 3154 3152 3150 3149 3148 3148 3148 3148 3147 3146 3142 3139 3135 3131 3127 3123 3118 3113 3107 3101 3095 3089 3081 3074 3067 3061 3055 3049 3044 3040 3034 3028 3025 3021 3017
3166 3164 3163 3163 3164 3161 3159 3156 3157 3155 3156 3155 3154 3152 3149 3146 3146 3145 3145 3144 3144 3144 3143 3140 3136 3133 3130 3126 3123 3118 3112 3108 3102 3095 3087 3080 3074 3069 3063 3057 3051 3045 3039 3036 3029 3024 3018 3014 3010
3163 3162 3160 3159 3158 3155 3153 3152 3152 3153 3153 3149 3148 3147 3144 3141 3142 3141 3140 3140 3141 3140 3139 3137 3133 3128 3125 3122 3119 3115 3110 3104 3097 3089 3081 3074 3069 3064 3060 3054 3048 3042 3035 3031 3025 3019 3014 3008 3005
3159 3158 3155 3155 3154 3152 3150 3149 3150 3148 3147 3144 3144 3142 3139 3137 3136 3138 3137 3138 3138 3136 3134 3133 3129 3125 3121 3118 3115 3111 3106 3099 3092 3084 3076 3069 3064 3058 3052 3046 3042 3037 3031 3026 3020 3013 3009 3002 2997
3155 3154 3151 3152 3150 3147 3147 3146 3148 3144 3141 3138 3138 3137 3133 3132 3133 3134 3135 3135 3133 3132 3131 3130 3127 3123 3118 3115 3111 3106 3100 3093 3087 3080 3074 3068 3061 3055 3049 3043 3038 3033 3027 3021 3014 3008 3002 2996 2993
3150 3151 3150 3148 3147 3146 3146 3143 3142 3142 3138 3134 3132 3129 3127 3128 3128 3130 3131 3131 3130 3130 3129 3127 3124 3119 3114 3111 3107 3103 3097 3091 3084 3077 3069 3062 3058 3051 3045 3038 3033 3027 3023 3016 3009 3003 2997 2992 2987
3147 3147 3147 3146 3145 3143 3143 3143 3135 3137 3133 3130 3125 3124 3122 3125 3127 3129 3129 3128 3128 3127 3127 3125 3121 3116 3111 3107 3103 3098 3092 3085 3078 3070 3064 3058 3052 3048 3042 3036 3029 3024 3017 3011 3004 2999 2994 2988 2983
3144 3144 3144 3144 3143 3140 3139 3141 3134 3132 3130 3127 3125 3121 3121 3123 3127 3127 3126 3126 3126 3125 3124 3122 3117 3111 3108 3104 3100 3094 3088 3081 3074 3067 3061 3055 3050 3044 3039 3032 3026 3020 3012 3006 3000 2995 2989 2983 2978
3142 3142 3142 3143 3142 3138 3138 3138 3133 3130 3128 3126 3123 3122 3122 3125 3126 3124 3124 3125 3125 3124 3122 3118 3113 3108 3104 3101 3096 3090 3082 3076 3069 3063 3057 3052 3047 3041 3035 3029 3022 3016 3009 3003 2997 2991 2985 2979 2974
3140 3141 3142 3144 3143 3135 3136 3133 3130 3129 3125 3123 3122 3122 3122 3122 3122 3122 3125 3125 3124 3122 3118 3114 3109 3106 3102 3097 3092 3085 3078 3072 3065 3060 3054 3047 3043 3038 3030 3024 3018 3012 3006 3000 2993 2987 2980 2975 2970
3139 3139 3140 3138 3136 3133 3132 3131 3128 3125 3124 3122 3121 3120 3120 3119 3121 3123 3125 3124 3122 3119 3115 3111 3108 3103 3099 3093 3088 3081 3075 3068 3063 3057 3050 3046 3041 3034 3028 3021 3016 3009 3003 2996 2990 2982 2978 2972 2966
3137 3138 3137 3135 3135 3134 3129 3128 3126 3124 3122 3120 3119 3119 3118 3120 3121 3123 3123 3122 3119 3115 3111 3108 3104 3099 3095 3091 3084 3078 3072 3065 3061 3054 3048 3044 3038 3031 3026 3018 3013 3006 3000 2993 2986 2981 2975 2968 2962
3136 3135 3135 3134 3133 3131 3131 3127 3125 3122 3120 3119 3119 3118 3118 3119 3121 3121 3119 3118 3115 3111 3108 3104 3100 3097 3092 3087 3080 3075 3069 3063 3058 3052 3048 3042 3035 3029 3022 3016 3010 3004 2997 2990 2984 2978 2971 2965 2959
3134 3135 3134 3134 3134 3130 3128 3125 3124 3121 3119 3118 3118 3118 3118 3119 3119 3119 3118 3115 3111 3108 3105 3101 3096 3092 3089 3083 3077 3071 3065 3061 3056 3051 3046 3040 3033 3027 3020 3014 3008 3002 2996 2988 2981 2975 2969 2963 2956
Wind_Speed
9 12 7 2 1 2 3 4 13 10 6 5 6 5 10 13 10 7 8 8 6 11 9 9 8 9 11 11 13 15 18 20 23 25 26 27 28 28 29 29 29 28 28 28 28 27 27 26 25
9 10 6 6 6 7 16 16 14 8 9 6 3 7 7 8 11 13 11 4 9 10 9 8 8 8 8 10 13 16 19 21 23 24 26 28 29 31 32 32 32 31 30 29 28 27 27 27 27
7 9 3 5 9 14 14 15 14 8 8 5 7 7 7 7 6 5 2 4 8 8 8 8 8 8 8 10 13 17 20 22 23 26 29 31 32 32 32 32 32 31 31 31 31 30 29 29 30
9 11 6 5 5 16 17 18 14 10 12 12 11 8 9 9 8 4 3 5 8 9 9 9 8 8 8 11 14 18 21 24 26 29 30 31 32 33 32 32 31 30 31 31 31 32 32 32 32
8 9 8 9 14 12 9 16 11 14 13 12 13 12 10 9 12 4 3 5 8 8 8 9 10 9 10 14 17 20 24 26 27 29 31 32 34 35 35 34 33 32 32 32 32 32 33 33 33
10 8 6 13 18 11 9 6 12 18 13 13 12 13 11 11 9 4 2 6 7 9 9 11 12 11 12 16 18 20 22 25 28 31 33 34 35 36 36 35 34 34 34 34 34 34 35 35 36
10 13 18 17 22 11 6 5 16 17 16 15 12 13 12 11 10 5 6 7 9 10 11 13 14 13 14 16 18 20 22 26 31 34 35 36 37 38 38 37 36 36 36 37 37 38 38 39 39
9 12 16 11 9 9 14 16 17 18 20 20 14 11 13 13 10 9 9 9 10 11 13 16 16 16 17 20 22 24 26 28 32 34 35 36 37 39 39 38 37 38 38 39 39 39 39 39 39
10 17 18 19 16 15 16 21 21 21 23 18 13 10 13 13 10 9 10 11 11 11 15 16 17 18 20 23 25 26 27 29 32 35 36 37 38 39 39 38 38 39 39 38 38 39 39 38 38
11 17 18 5 9 8 8 19 22 19 18 13 8 11 13 13 11 10 10 11 12 14 16 18 19 19 22 25 26 27 27 30 31 35 36 38 39 39 39 38 38 38 38 37 38 38 38 38 37
11 20 17 9 9 8 7 13 15 15 17 11 9 12 15 14 12 11 11 12 11 13 17 19 20 21 24 25 27 29 31 31 32 34 36 38 39 39 38 37 37 36 35 35 35 35 35 35 35
15 11 9 12 16 19 20 15 17 17 17 13 11 14 16 16 16 15 11 9 8 12 16 20 22 23 25 26 28 30 32 32 33 36 36 38 39 39 38 37 37 34 33 33 33 32 32 32 33
14 10 12 17 19 22 23 21 20 20 21 14 15 16 17 18 20 21 16 11 9 12 16 20 22 25 27 27 29 31 33 33 35 37 37 38 39 39 38 37 36 35 34 33 32 31 31 31 30
10 11 12 14 18 22 24 20 21 21 23 17 17 18 18 20 24 26 23 18 15 15 18 22 24 27 29 29 30 32 34 35 36 36 37 39 39 39 38 37 35 35 34 34 33 33 31 29 27
15 14 15 21 21 22 21 22 25 21 20 20 20 21 20 23 28 27 23 20 19 20 22 25 27 30 31 31 32 33 35 35 36 35 37 39 38 39 40 37 35 34 33 32 33 32 30 27 26
11 19 24 27 23 20 22 29 26 21 20 21 23 24 23 28 29 27 24 20 21 23 25 27 30 33 33 34 34 35 36 37 36 36 37 37 38 37 36 34 33 34 34 32 33 31 28 27 24
19 22 24 22 21 24 26 31 27 22 24 20 22 25 26 31 31 26 24 22 21 21 22 25 30 31 34 35 34 35 36 36 37 39 39 38 37 36 36 35 35 35 35 33 31 32 31 26 22
24 26 24 22 21 28 32 32 28 27 20 19 23 26 31 34 31 26 25 23 21 22 22 25 29 30 32 32 33 33 35 36 38 40 41 41 38 36 34 34 33 34 34 32 30 31 31 30 27
14 20 24 22 19 18 23 28 28 23 20 26 28 30 34 38 30 28 25 23 23 24 26 26 30 33 29 28 29 30 31 34 38 40 42 42 39 35 32 31 32 33 34 33 31 32 31 29 27
19 25 30 28 20 15 16 17 18 23 24 27 29 33 37 39 37 29 26 23 23 26 29 28 31 34 27 25 26 28 30 34 38 40 40 41 38 37 36 35 34 33 33 33 32 32 31 30 29
24 14 10 12 14 11 12 17 17 25 29 34 32 34 38 40 35 29 26 25 26 29 31 31 32 32 24 22 25 27 32 36 38 38 37 37 34 33 33 35 34 33 33 32 32 33 31 28 25
17 15 12 15 7 9 11 14 24 25 30 29 32 35 37 38 36 30 26 26 29 30 32 32 32 30 22 21 23 26 31 35 36 35 34 33 32 32 33 34 34 35 33 32 32 30 29 26 27
19 18 15 14 12 15 18 14 31 31 28 26 27 35 37 36 32 27 27 29 30 32 33 31 32 27 21 21 24 29 34 38 37 33 31 30 31 32 32 33 33 34 32 32 29 26 26 28 30
14 17 16 14 15 13 25 18 20 19 21 18 19 24 29 31 26 25 29 31 32 33 32 31 32 26 21 22 26 32 37 38 34 30 28 28 29 30 31 32 33 32 31 27 26 28 29 30 28
16 15 7 5 4 7 11 9 17 17 17 25 22 18 19 21 23 27 30 30 31 32 32 32 30 23 22 24 29 35 37 35 31 29 28 27 29 31 31 32 31 30 25 25 28 30 29 27 27
11 10 5 4 3 12 14 6 12 19 19 19 12 10 15 19 26 29 27 27 30 31 30 30 27 22 23 27 32 36 35 33 28 27 27 28 30 31 32 31 30 25 25 28 30 28 27 27 27
8 8 8 13 18 8 5 4 18 17 15 15 13 14 18 24 26 23 22 25 26 28 27 26 23 21 24 28 36 35 33 29 26 26 27 29 30 31 31 29 26 25 27 30 29 28 27 27 25
4 9 8 8 2 4 5 15 17 15 16 15 13 15 19 23 22 17 18 20 21 22 23 23 20 21 25 33 33 33 29 26 25 26 28 29 29 30 29 27 24 26 29 30 28 27 26 25 24
6 11 9 5 6 4 3 8 16 19 22 19 13 13 17 17 14 14 14 13 16 20 20 20 20 24 28 29 31 29 26 24 25 26 27 28 29 30 28 25 24 27 31 30 28 27 25 25 24
5 13 12 5 5 7 5 4 18 14 17 16 15 14 14 10 10 9 7 11 15 17 17 21 25 22 25 29 28 26 24 24 24 25 27 28 29 30 26 23 24 28 31 29 28 25 24 25 24
Wind_Direction
187 192 177 132 338 297 286 292 248 210 245 269 238 233 270 270 248 258 282 293 261 227 240 252 271 301 320 331 347 351 352 351 349 348 343 338 335 333 331 328 325 321 317 313 310 307 305 301 297
203 177 153 25 353 309 303 251 222 255 278 308 277 289 278 263 260 273 291 289 241 231 246 261 282 309 321 342 349 352 352 350 348 342 338 337 337 336 333 329 326 323 319 315 311 308 304 301 298
194 174 124 340 325 307 278 241 219 284 308 337 318 328 334 309 307 320 38 158 227 239 247 260 288 304 323 339 343 346 347 344 339 340 341 341 339 336 332 328 325 321 318 316 312 310 307 303 300
197 184 173 167 14 329 261 233 221 293 352 0 351 348 327 309 327 26 123 188 235 246 248 268 284 292 311 326 337 340 337 336 340 341 339 337 336 333 330 326 322 320 317 313 311 308 306 303 299
207 189 220 246 278 290 269 237 268 302 332 346 349 340 335 322 325 29 156 223 232 237 256 272 279 287 307 319 328 334 337 339 338 335 334 334 335 333 330 326 323 319 316 313 311 308 306 303 300
218 216 277 276 290 250 247 272 276 304 309 321 339 346 340 326 331 330 260 245 245 254 269 278 278 288 306 315 325 327 333 330 332 333 335 335 335 333 330 327 324 320 318 315 313 311 309 306 304
228 232 283 305 305 206 220 221 270 297 286 309 319 338 339 335 326 300 258 248 253 263 273 276 273 279 293 305 316 322 325 326 329 332 335 334 332 331 330 328 325 322 319 317 316 314 312 310 307
250 264 290 316 151 176 257 222 246 263 280 291 314 335 338 339 323 297 275 259 259 265 272 276 272 278 289 302 311 317 321 328 328 331 333 331 331 331 330 328 325 322 321 319 317 315 313 311 309
267 274 295 312 222 299 258 228 231 253 266 300 322 327 335 339 326 302 288 285 284 279 280 277 273 277 287 300 309 318 324 326 330 331 331 331 331 330 329 328 324 323 321 319 317 315 313 310 307
271 283 309 278 254 295 298 243 252 273 295 313 315 315 331 337 329 315 302 291 285 279 278 274 272 280 293 304 312 317 321 327 331 329 331 330 329 329 329 328 324 323 321 319 318 316 314 311 308
277 292 295 257 297 302 279 263 265 283 312 318 305 311 322 331 326 317 312 294 288 283 276 275 279 288 299 307 310 314 320 327 330 329 330 328 328 329 329 327 324 323 322 320 318 314 312 309 308
292 297 233 282 302 303 307 288 290 303 316 318 313 307 311 319 315 317 313 312 274 266 268 274 281 289 296 303 306 312 318 325 327 328 329 327 328 329 328 326 324 323 322 319 317 315 312 310 307
295 252 269 287 291 295 293 297 291 316 309 318 313 306 304 308 313 316 315 314 289 275 272 272 279 285 292 298 304 309 316 324 327 327 327 327 328 329 329 327 325 323 321 321 319 316 314 311 307
266 231 257 276 280 290 292 286 286 309 303 304 305 296 297 303 319 323 323 313 309 292 282 282 283 285 290 295 301 308 316 323 325 325 326 330 329 330 329 327 325 323 324 323 322 319 318 316 312
254 254 259 271 275 291 270 260 276 291 295 302 295 290 291 308 317 318 321 313 302 296 290 287 287 288 292 297 302 308 312 319 323 326 330 330 330 331 329 327 326 324 324 326 324 320 320 318 315
259 260 262 272 277 261 260 277 271 284 288 294 293 288 288 304 306 310 320 314 305 301 298 294 292 293 295 295 299 306 313 320 324 329 333 332 332 331 327 327 327 326 327 328 323 318 319 318 317
252 256 261 268 272 269 268 276 270 277 283 285 290 286 292 298 300 308 315 315 312 311 309 306 306 299 295 295 300 307 315 323 328 332 334 333 332 332 331 330 329 329 328 329 322 320 318 317 316
253 263 271 277 291 271 261 268 264 271 290 295 283 285 296 296 297 297 304 311 314 315 317 313 319 310 300 296 301 311 319 326 330 333 332 332 332 335 333 329 330 328 326 327 323 319 317 318 317
267 272 273 288 286 275 267 270 269 274 288 292 285 290 296 293 283 286 297 309 314 317 312 315 319 320 310 299 304 313 322 326 331 332 331 331 334 333 331 332 331 329 325 327 324 319 317 313 310
273 278 281 281 277 286 276 267 267 275 301 303 297 288 289 286 282 283 290 304 313 313 313 315 319 321 310 300 306 316 322 329 333 333 333 330 331 332 334 332 330 329 326 326 321 317 319 318 315
271 282 271 266 288 262 255 261 265 281 284 284 289 275 277 276 277 280 290 302 307 310 312 310 318 319 309 304 312 320 329 333 334 333 330 328 330 333 332 330 330 329 327 325 320 321 321 322 322
251 267 279 282 280 242 244 274 282 296 299 293 292 283 277 264 263 272 290 297 299 302 305 308 316 319 311 311 316 324 328 332 332 332 330 330 333 333 333 330 329 328 328 323 321 323 324 326 323
259 272 281 275 275 295 278 277 294 304 305 302 298 279 276 259 262 277 286 284 289 294 299 308 315 319 313 316 320 325 332 334 333 333 332 331 332 333 331 330 328 329 324 322 326 325 326 324 323
264 271 279 283 291 282 291 299 303 313 312 296 295 277 267 253 257 270 270 273 282 290 299 310 317 317 315 318 322 329 333 334 333 334 332 333 333 333 332 330 329 325 325 328 329 329 327 325 323
262 271 317 312 297 248 314 311 289 298 307 307 309 296 249 242 257 263 266 273 283 293 302 313 315 313 316 320 327 332 334 333 334 334 335 336 335 334 333 332 327 329 333 334 332 328 328 327 322
287 267 223 227 231 279 297 277 294 310 308 313 296 254 246 245 246 252 260 275 285 296 308 311 312 315 317 323 330 330 335 332 337 335 336 340 338 335 334 333 331 336 338 336 333 330 331 327 323
241 258 277 278 281 283 279 286 319 312 302 283 267 250 244 247 247 252 270 283 297 304 305 308 315 313 319 328 324 332 332 336 336 337 343 341 338 336 336 333 337 339 340 338 335 335 332 327 326
275 283 281 290 282 291 288 303 302 305 302 292 264 252 250 241 242 263 289 300 305 304 309 315 312 312 324 324 329 331 333 338 339 343 344 339 339 338 338 337 338 343 342 341 338 336 333 333 332
295 312 282 264 267 197 264 297 300 291 290 290 275 254 249 251 263 290 308 321 317 312 310 314 311 315 319 324 329 333 336 341 344 345 341 340 342 340 340 338 343 345 347 341 341 338 340 341 342
98 50 38 24 340 325 318 325 344 317 285 273 265 253 251 274 287 317 329 314 303 308 314 308 312 314 322 326 331 335 340 345 345 343 341 343 343 344 340 342 346 350 347 345 343 344 344 347 349